TimeGMT,TemperatureF,Dew PointF,Humidity,Sea Level PressureIn,VisibilityMPH,Wind Direction,Wind SpeedMPH,Gust SpeedMPH,PrecipitationIn,Events,Conditions,WindDirDegrees,DateUTC
12:50 AM,55.4,51.8,88,29.47,6.2,SSW,18.4,-,N/A,Rain,Rain,210,2013-10-26 23:50:00
1:00 AM,54,52,91,29.50,19,SSW,18.4,,,Rain,Rain,210,2013-10-27 00:00:00
1:50 AM,53.6,51.8,94,29.47,6.2,SSW,19.6,-,N/A,,Mostly Cloudy,210,2013-10-27 00:50:00
1:50 AM,53.6,51.8,94,29.44,6.2,SSW,15.0,-,N/A,,Mostly Cloudy,200,2013-10-27 01:50:00
2:50 AM,53.6,51.8,94,29.42,6.2,SSW,17.3,-,N/A,,Scattered Clouds,200,2013-10-27 02:50:00
3:00 AM,54,51,87,29.42,12,SSW,17.3,,,,Partly Cloudy,200,2013-10-27 03:00:00
3:50 AM,53.6,51.8,94,29.39,6.2,South,15.0,-,N/A,,Mostly Cloudy,190,2013-10-27 03:50:00
4:50 AM,53.6,50.0,88,29.33,6.2,South,17.3,-,N/A,,Mostly Cloudy,190,2013-10-27 04:50:00
5:50 AM,53.6,46.4,77,29.36,6.2,WSW,28.8,-,N/A,Rain,Light Rain,240,2013-10-27 05:50:00
6:00 AM,53,47,73,29.37,12,WSW,28.8,,,Rain,Light Rain,240,2013-10-27 06:00:00
6:50 AM,50.0,46.4,87,29.39,6.2,SW,20.7,32.2,N/A,,Scattered Clouds,220,2013-10-27 06:50:00
7:50 AM,51.8,48.2,88,29.42,6.2,SSW,20.7,-,N/A,,Partly Cloudy,210,2013-10-27 07:50:00
8:50 AM,53.6,48.2,82,29.42,6.2,SW,23.0,-,N/A,,Partly Cloudy,220,2013-10-27 08:50:00
9:00 AM,54,48,75,29.43,12,SW,23.0,,,,Scattered Clouds,220,2013-10-27 09:00:00
9:50 AM,55.4,48.2,77,29.42,6.2,SW,24.2,-,N/A,,Partly Cloudy,220,2013-10-27 09:50:00
10:50 AM,57.2,46.4,67,29.44,6.2,SW,25.3,-,N/A,,Partly Cloudy,220,2013-10-27 10:50:00
11:50 AM,59.0,44.6,59,29.44,6.2,SW,28.8,-,N/A,,Mostly Cloudy,230,2013-10-27 11:50:00
12:00 PM,58,45,52,29.45,12,SW,28.8,,,,Mostly Cloudy,230,2013-10-27 12:00:00
12:50 PM,57.2,48.2,72,29.44,6.2,SW,26.5,40.3,N/A,,Mostly Cloudy,220,2013-10-27 12:50:00
1:50 PM,57.2,48.2,72,29.47,6.2,SW,24.2,-,N/A,,Mostly Cloudy,220,2013-10-27 13:50:00
2:50 PM,57.2,48.2,72,29.47,6.2,SW,27.6,40.3,N/A,,Mostly Cloudy,220,2013-10-27 14:50:00
3:00 PM,57,48,64,29.48,12,SW,27.6,,,,Mostly Cloudy,220,2013-10-27 15:00:00
3:50 PM,57.2,48.2,72,29.47,6.2,SW,25.3,-,N/A,,Mostly Cloudy,220,2013-10-27 15:50:00
4:50 PM,55.4,48.2,77,29.47,6.2,SW,23.0,35.7,N/A,,Mostly Cloudy,220,2013-10-27 16:50:00
5:50 PM,55.4,48.2,77,29.50,6.2,SW,21.9,-,N/A,,Mostly Cloudy,220,2013-10-27 17:50:00
6:50 PM,55.4,48.2,77,29.47,6.2,SSW,17.3,-,N/A,Rain,Light Rain,210,2013-10-27 18:50:00
7:50 PM,53.6,50.0,88,29.44,5.0,SSW,17.3,-,N/A,Rain,Light Rain,200,2013-10-27 19:50:00
8:50 PM,51.8,51.8,100,29.42,1.4,SSE,5.8,-,N/A,Rain,Heavy Rain,160,2013-10-27 20:50:00
9:00 PM,53,52,94,29.42,1,SSE,5.8,,,Rain,Heavy Rain,160,2013-10-27 21:00:00
9:50 PM,55.4,53.6,94,29.33,4.3,SSW,10.4,-,N/A,Rain,Rain,200,2013-10-27 21:50:00
10:50 PM,55.4,53.6,94,29.30,5.0,SSW,20.7,-,N/A,Rain,Heavy Rain,200,2013-10-27 22:50:00